When you browse on this site, cookies collect data to enhance your experience and personalize the content and advertising you see.
Visit our Privacy Policy to learn more. By continuing to use the site, you agree to this use of cookies and data.
  • In Lithuania
  • List of Countries
  • For 7 days
  • Water Temperature
  • Satellite Maps
  • Weather Map
  • Weather Widgets
  • user-avatar
    Login

    Hourly Weather Córdoba

    Today, 22 February, Friday

    Time Temperature Precipitation Wind Pressure Humidity
    00:00 +29°C° 0 mm 3 mps 720 mmHg 47%
    01:00 +28°C° 0 mm 2 mps 720 mmHg 48%
    02:00 +27°C° 0 mm 2 mps 720 mmHg 48%
    03:00 +27°C° 0 mm 2 mps 720 mmHg 48%
    04:00 +27°C° 0 mm 2 mps 720 mmHg 49%
    05:00 +26°C° 0 mm 2 mps 720 mmHg 49%
    06:00 +28°C° 0 mm 3 mps 720 mmHg 47%
    07:00 +30°C° 0 mm 4 mps 720 mmHg 44%
    08:00 +33°C° 0 mm 6 mps 721 mmHg 44%
    09:00 +35°C° 0 mm 6 mps 721 mmHg 38%
    10:00 +39°C° 0 mm 6 mps 721 mmHg 33%
    11:00 +42°C° 0 mm 6 mps 721 mmHg 28%
    12:00 +43°C° 0 mm 5 mps 720 mmHg 26%
    13:00 +45°C° 0 mm 5 mps 720 mmHg 24%
    14:00 +46°C° 0 mm 5 mps 719 mmHg 21%
    15:00 +44°C° 0 mm 4 mps 719 mmHg 21%
    16:00 +44°C° 0 mm 4 mps 719 mmHg 21%
    17:00 +44°C° 0 mm 3 mps 718 mmHg 21%
    18:00 +41°C° 0 mm 4 mps 718 mmHg 28%
    19:00 +37°C° 0 mm 4 mps 718 mmHg 35%
    20:00 +34°C° 0 mm 4 mps 718 mmHg 42%
    21:00 +33°C° 0 mm 5 mps 719 mmHg 47%
    22:00 +32°C° 0 mm 5 mps 719 mmHg 51%
    23:00 +30°C° 0 mm 5 mps 720 mmHg 55%

    Tomorrow, 23 February, Saturday

    Time Temperature Precipitation Wind Pressure Humidity
    00:00 +29°C° 0 mm 5 mps 719 mmHg 64%
    01:00 +27°C° 0 mm 5 mps 719 mmHg 72%
    02:00 +26°C° 0 mm 5 mps 719 mmHg 81%
    03:00 +25°C° 0 mm 4 mps 719 mmHg 84%
    04:00 +25°C° 0 mm 4 mps 718 mmHg 87%
    05:00 +24°C° 0 mm 3 mps 718 mmHg 90%
    06:00 +25°C° 0 mm 3 mps 718 mmHg 87%
    07:00 +25°C° 0 mm 4 mps 718 mmHg 84%
    08:00 +26°C° 0 mm 4 mps 718 mmHg 81%
    09:00 +26°C° 0 mm 4 mps 718 mmHg 79%
    10:00 +27°C° 0 mm 3 mps 718 mmHg 76%
    11:00 +28°C° 0 mm 3 mps 717 mmHg 73%
    12:00 +30°C° 0 mm 3 mps 717 mmHg 64%
    13:00 +34°C° 0 mm 4 mps 716 mmHg 54%
    14:00 +37°C° 0 mm 4 mps 716 mmHg 44%
    15:00 +37°C° 0 mm 4 mps 715 mmHg 42%
    16:00 +38°C° 0 mm 4 mps 715 mmHg 41%
    17:00 +38°C° 0 mm 4 mps 714 mmHg 39%
    18:00 +35°C° 0 mm 5 mps 715 mmHg 49%
    19:00 +33°C° 0 mm 5 mps 715 mmHg 59%
    20:00 +29°C° 0 mm 6 mps 715 mmHg 70%
    21:00 +27°C° 0.9 mm 5 mps 716 mmHg 78%
    22:00 +25°C° 0.9 mm 4 mps 716 mmHg 86%
    23:00 +22°C° 0.9 mm 3 mps 717 mmHg 94%

    Day after tomorrow, 24 February, Sunday

    Time Temperature Precipitation Wind Pressure Humidity
    00:00 +22°C° 0.4 mm 4 mps 717 mmHg 93%
    01:00 +22°C° 0.4 mm 4 mps 717 mmHg 93%
    02:00 +22°C° 0.4 mm 4 mps 717 mmHg 92%
    03:00 +22°C° 0.1 mm 3 mps 717 mmHg 89%
    04:00 +21°C° 0.1 mm 3 mps 717 mmHg 87%
    05:00 +21°C° 0.1 mm 3 mps 717 mmHg 84%
    06:00 +21°C° 0.4 mm 3 mps 717 mmHg 78%
    07:00 +22°C° 0.4 mm 3 mps 718 mmHg 72%
    08:00 +22°C° 0.4 mm 3 mps 718 mmHg 65%
    09:00 +25°C° 0.2 mm 3 mps 719 mmHg 57%
    10:00 +27°C° 0.2 mm 2 mps 719 mmHg 48%
    11:00 +29°C° 0.2 mm 2 mps 720 mmHg 39%
    12:00 +30°C° 0 mm 3 mps 719 mmHg 37%
    13:00 +31°C° 0 mm 3 mps 719 mmHg 34%
    14:00 +33°C° 0 mm 4 mps 719 mmHg 32%
    15:00 +32°C° 0 mm 4 mps 718 mmHg 34%
    16:00 +32°C° 0 mm 4 mps 718 mmHg 36%
    17:00 +32°C° 0 mm 4 mps 717 mmHg 38%
    18:00 +29°C° 0 mm 3 mps 718 mmHg 44%
    19:00 +27°C° 0 mm 2 mps 718 mmHg 50%
    20:00 +26°C° 0 mm 2 mps 718 mmHg 56%
    21:00 +25°C° 0 mm 2 mps 719 mmHg 57%
    22:00 +25°C° 0 mm 2 mps 720 mmHg 58%
    23:00 +25°C° 0 mm 3 mps 720 mmHg 59%

    25 February, Monday

    Time Temperature Precipitation Wind Pressure Humidity
    00:00 +24°C° 0.1 mm 3 mps 720 mmHg 61%
    01:00 +22°C° 0.1 mm 3 mps 721 mmHg 63%
    02:00 +21°C° 0.1 mm 3 mps 721 mmHg 65%
    03:00 +20°C° 0 mm 4 mps 721 mmHg 61%
    04:00 +19°C° 0 mm 4 mps 721 mmHg 57%
    05:00 +19°C° 0 mm 4 mps 721 mmHg 54%
    06:00 +18°C° 0 mm 4 mps 722 mmHg 49%
    07:00 +18°C° 0 mm 4 mps 723 mmHg 45%
    08:00 +17°C° 0 mm 5 mps 723 mmHg 41%
    09:00 +19°C° 0 mm 4 mps 724 mmHg 40%
    10:00 +20°C° 0 mm 3 mps 724 mmHg 38%
    11:00 +21°C° 0 mm 3 mps 724 mmHg 37%
    12:00 +21°C° 0 mm 2 mps 724 mmHg 39%
    13:00 +21°C° 0 mm 2 mps 724 mmHg 41%
    14:00 +22°C° 0 mm 1 mps 724 mmHg 42%
    15:00 +22°C° 0 mm 1 mps 723 mmHg 42%
    16:00 +23°C° 0 mm 2 mps 723 mmHg 41%
    17:00 +23°C° 0 mm 2 mps 723 mmHg 40%
    18:00 +21°C° 0 mm 2 mps 723 mmHg 44%
    19:00 +20°C° 0 mm 1 mps 723 mmHg 48%
    20:00 +19°C° 0 mm 1 mps 724 mmHg 52%
    21:00 +18°C° 0 mm 1 mps 724 mmHg 53%
    22:00 +18°C° 0 mm 1 mps 724 mmHg 55%
    23:00 +16°C° 0 mm 1 mps 725 mmHg 56%

    26 February, Tuesday

    Time Temperature Precipitation Wind Pressure Humidity
    00:00 +15°C° 0 mm 1 mps 724 mmHg 57%
    01:00 +15°C° 0 mm 1 mps 724 mmHg 58%
    02:00 +14°C° 0 mm 1 mps 724 mmHg 59%
    03:00 +13°C° 0 mm 0 mps 724 mmHg 59%
    04:00 +12°C° 0 mm 0 mps 724 mmHg 58%
    05:00 +12°C° 0 mm 0 mps 725 mmHg 58%
    06:00 +15°C° 0 mm 1 mps 725 mmHg 51%
    07:00 +18°C° 0 mm 1 mps 726 mmHg 45%
    08:00 +18°C° 0 mm 2 mps 726 mmHg 38%
    09:00 +20°C° 0 mm 2 mps 726 mmHg 36%
    10:00 +22°C° 0 mm 3 mps 727 mmHg 34%
    11:00 +25°C° 0 mm 4 mps 727 mmHg 33%
    12:00 +26°C° 0 mm 5 mps 726 mmHg 35%
    13:00 +26°C° 0 mm 5 mps 726 mmHg 37%
    14:00 +27°C° 0 mm 5 mps 725 mmHg 39%
    15:00 +26°C° 0 mm 5 mps 724 mmHg 42%
    16:00 +26°C° 0 mm 6 mps 724 mmHg 46%
    17:00 +24°C° 0 mm 6 mps 723 mmHg 49%
    18:00 +22°C° 0 mm 5 mps 723 mmHg 56%
    19:00 +20°C° 0 mm 4 mps 723 mmHg 63%
    20:00 +18°C° 0 mm 4 mps 723 mmHg 70%
    21:00 +17°C° 0 mm 3 mps 723 mmHg 72%
    22:00 +17°C° 0 mm 3 mps 724 mmHg 74%
    23:00 +17°C° 0 mm 2 mps 724 mmHg 76%

    27 February, Wednesday

    Time Temperature Precipitation Wind Pressure Humidity
    00:00 +17°C° 0 mm 2 mps 724 mmHg 75%
    01:00 +16°C° 0 mm 2 mps 724 mmHg 74%
    02:00 +16°C° 0 mm 2 mps 723 mmHg 73%
    03:00 +16°C° 0 mm 2 mps 723 mmHg 71%
    04:00 +16°C° 0 mm 2 mps 723 mmHg 69%
    05:00 +16°C° 0 mm 2 mps 723 mmHg 68%
    06:00 +18°C° 0 mm 2 mps 724 mmHg 60%
    07:00 +20°C° 0 mm 3 mps 724 mmHg 52%
    08:00 +21°C° 0 mm 3 mps 724 mmHg 44%
    09:00 +25°C° 0 mm 4 mps 724 mmHg 39%
    10:00 +28°C° 0 mm 4 mps 724 mmHg 34%
    11:00 +32°C° 0 mm 5 mps 724 mmHg 29%
    12:00 +33°C° 0 mm 4 mps 724 mmHg 27%
    13:00 +34°C° 0 mm 4 mps 723 mmHg 25%
    14:00 +35°C° 0 mm 3 mps 723 mmHg 23%
    15:00 +34°C° 0 mm 3 mps 722 mmHg 23%
    16:00 +34°C° 0 mm 3 mps 722 mmHg 24%
    17:00 +34°C° 0 mm 3 mps 722 mmHg 25%
    18:00 +30°C° 0 mm 3 mps 722 mmHg 30%
    19:00 +28°C° 0 mm 3 mps 722 mmHg 35%
    20:00 +25°C° 0 mm 3 mps 723 mmHg 40%
    21:00 +24°C° 0 mm 2 mps 723 mmHg 43%
    22:00 +23°C° 0 mm 2 mps 723 mmHg 45%
    23:00 +21°C° 0 mm 2 mps 724 mmHg 48%
    Show more